GW5488 Weather Reports


time (UTC)temp
F
wind
direction
speed
knots
gust
knots
rain 1hr
in
rain 24hr
in
rain mn
in
humidity
%
barometer
mb
20260506044303 33 261 0.0 0.9 0.00 0.04 0.00 76 1010.4
20260506043804 32 261 0.0 0.9 0.00 0.04 0.00 76 1010.4
20260506043304 32 261 0.0 0.9 0.00 0.04 0.00 77 1010.3
20260506042305 32 261 0.0 0.0 0.00 0.04 0.00 77 1010.5
20260506041803 32 261 0.0 0.0 0.00 0.04 0.00 77 1010.5
20260506041304 32 261 0.0 0.0 0.00 0.04 0.00 76 1010.4
20260506040804 32 261 0.0 0.0 0.00 0.04 0.00 76 1010.5
20260506040304 32 261 0.0 0.0 0.00 0.04 0.00 75 1010.5
20260506035804 32 281 0.0 0.9 0.00 0.04 0.00 75 1010.5
20260506035306 32 281 0.0 0.9 0.00 0.04 0.00 75 1010.5
20260506034304 32 281 0.0 0.0 0.00 0.04 0.00 76 1010.4
20260506033803 32 281 0.0 0.0 0.00 0.04 0.00 77 1010.4
20260506033303 32 281 0.0 0.9 0.00 0.04 0.00 77 1010.4
20260506032804 32 281 0.0 0.9 0.00 0.04 0.00 77 1010.4
20260506032305 32 281 0.0 0.0 0.00 0.04 0.00 76 1010.4
20260506031303 32 281 0.0 0.9 0.00 0.04 0.00 76 1010.4
20260506030303 32 281 0.0 0.9 0.00 0.04 0.00 76 1010.5
20260506025803 32 281 0.0 0.9 0.00 0.04 0.00 76 1010.5
20260506024804 32 281 0.0 0.9 0.00 0.04 0.00 77 1010.5
20260506024304 32 281 0.0 0.0 0.00 0.04 0.00 77 1010.5
20260506023303 32 281 0.0 0.9 0.00 0.04 0.00 75 1010.6
20260506022804 32 281 0.0 0.0 0.00 0.04 0.00 77 1010.6
20260506021803 32 281 0.0 0.9 0.00 0.04 0.00 77 1010.6
20260506020804 32 281 0.0 0.9 0.00 0.04 0.00 74 1010.7
20260506014303 31 282 0.0 0.0 0.00 0.04 0.00 78 1010.8
20260506013803 31 282 0.0 0.0 0.00 0.04 0.00 77 1010.7
20260506013303 31 282 0.0 0.0 0.00 0.04 0.00 78 1010.8
20260506012803 31 282 0.0 0.9 0.00 0.04 0.00 78 1010.7
20260506011803 32 282 0.0 0.9 0.00 0.04 0.00 78 1010.8
20260506011304 32 282 0.0 0.9 0.00 0.04 0.00 77 1010.7
20260506010804 31 282 0.0 0.9 0.00 0.04 0.00 76 1010.6
20260506005804 31 282 0.0 0.9 0.00 0.04 0.00 78 1010.6
20260506005306 31 282 0.0 0.9 0.00 0.04 0.00 79 1010.6
20260506004803 31 282 0.0 0.0 0.00 0.04 0.00 78 1010.6
20260506004304 31 282 0.0 0.0 0.00 0.04 0.00 78 1010.6
20260506003804 31 282 0.9 0.9 0.00 0.04 0.00 77 1010.6
20260506003304 31 300 0.0 0.9 0.00 0.04 0.00 78 1010.6
20260506002804 31 8 0.0 0.9 0.00 0.04 0.00 77 1010.6
20260506002305 31 306 0.0 1.7 0.00 0.04 0.00 79 1010.7
20260506001803 31 306 0.0 0.9 0.00 0.04 0.00 79 1010.7
20260506001304 31 278 0.0 0.9 0.00 0.04 0.00 81 1010.7
20260506000803 31 278 0.0 0.0 0.00 0.04 0.00 81 1010.8
20260506000303 31 278 0.0 0.0 0.00 0.04 0.00 81 1010.8
20260505235804 31 278 0.0 0.9 0.00 0.04 0.00 81 1010.9
20260505235305 30 278 0.0 0.9 0.00 0.04 0.00 80 1010.9
20260505234804 30 278 0.0 0.9 0.00 0.04 0.00 81 1010.9
20260505234303 30 278 0.0 0.9 0.00 0.04 0.00 82 1010.9
20260505233804 30 278 0.0 0.9 0.00 0.04 0.00 82 1010.9
20260505232803 29 278 0.0 0.9 0.00 0.04 0.00 83 1010.8
20260505231804 29 271 0.0 0.0 0.00 0.04 0.00 84 1010.7
20260505231304 30 271 0.0 0.9 0.00 0.04 0.00 84 1010.9
20260505230804 30 271 0.9 1.7 0.00 0.04 0.00 85 1011.0
20260505230304 30 271 0.9 1.7 0.00 0.04 0.00 84 1010.9
20260505225804 30 266 0.0 0.9 0.00 0.04 0.00 83 1010.9
20260505225305 30 266 0.0 0.9 0.00 0.04 0.00 83 1010.9
20260505224804 30 266 0.9 1.7 0.00 0.04 0.00 83 1010.9
20260505224303 31 271 0.0 0.0 0.00 0.04 0.00 82 1010.7
20260505223803 31 271 0.9 1.7 0.00 0.04 0.00 82 1010.7
20260505223303 31 271 0.0 0.9 0.00 0.04 0.00 81 1010.7
20260505222306 32 271 0.0 0.9 0.00 0.04 0.00 82 1010.7
20260505221803 32 271 0.0 0.9 0.00 0.04 0.00 82 1010.7
20260505221304 32 271 0.0 0.9 0.00 0.04 0.00 82 1010.7
20260505220803 32 271 0.0 0.9 0.00 0.04 0.00 83 1010.6
20260505220304 32 271 0.0 0.9 0.00 0.04 0.00 83 1010.6
20260505215804 32 271 0.0 0.9 0.00 0.04 0.04 83 1010.7
20260505215305 32 271 0.0 0.9 0.00 0.04 0.04 82 1010.7
20260505214804 32 271 0.0 0.9 0.00 0.04 0.04 82 1010.6
20260505214304 32 271 0.0 0.9 0.00 0.04 0.04 82 1010.6
20260505213804 32 271 0.0 0.0 0.00 0.04 0.04 81 1010.7
20260505213304 32 271 0.0 0.9 0.00 0.04 0.04 81 1010.6
20260505212804 33 271 0.0 0.0 0.00 0.04 0.04 81 1010.5
20260505212305 33 271 0.0 0.0 0.00 0.04 0.04 81 1010.6
20260505211803 33 271 0.0 0.0 0.00 0.04 0.04 80 1010.6
20260505210804 33 271 0.0 0.0 0.00 0.04 0.04 81 1010.6
20260505205804 33 271 0.0 0.9 0.00 0.04 0.04 80 1010.6
20260505205305 33 271 0.0 0.0 0.00 0.04 0.04 80 1010.6
20260505204804 33 271 0.0 0.0 0.00 0.04 0.04 79 1010.6
20260505204303 33 271 0.0 0.9 0.00 0.04 0.04 79 1010.6
20260505203804 33 271 0.0 0.0 0.00 0.04 0.04 79 1010.5
20260505203304 33 271 0.0 0.0 0.00 0.04 0.04 79 1010.5
20260505202306 33 271 0.0 0.9 0.00 0.04 0.04 78 1010.4
20260505201803 33 271 0.0 0.9 0.00 0.04 0.04 78 1010.6
20260505201304 33 271 0.0 0.9 0.00 0.04 0.04 78 1010.5
20260505200804 33 271 0.0 0.9 0.00 0.04 0.04 78 1010.4
20260505195803 33 271 0.0 0.9 0.00 0.04 0.04 78 1010.5
20260505195305 33 271 0.0 1.7 0.00 0.04 0.04 78 1010.4
20260505194804 33 273 0.0 1.7 0.00 0.04 0.04 77 1010.4
20260505194304 33 269 0.0 0.9 0.00 0.04 0.04 77 1010.4
20260505193304 33 279 0.0 1.7 0.00 0.04 0.04 78 1010.3
20260505192803 33 276 0.0 2.6 0.00 0.04 0.04 78 1010.3
20260505191304 33 280 1.7 5.2 0.00 0.04 0.04 78 1009.9
20260505190303 33 274 1.7 6.1 0.00 0.04 0.04 79 1010.0
20260505184303 34 278 0.9 2.6 0.00 0.04 0.04 77 1009.8
20260505183804 35 268 0.9 2.6 0.00 0.04 0.04 76 1009.8
20260505182804 35 272 0.0 0.9 0.00 0.04 0.04 76 1009.8
20260505182306 35 272 0.0 2.6 0.00 0.04 0.04 76 1009.8
20260505181804 35 274 0.0 1.7 0.00 0.04 0.04 76 1009.7
20260505180303 35 265 0.9 2.6 0.00 0.04 0.04 75 1009.7
20260505175803 35 256 1.7 5.2 0.00 0.04 0.04 74 1009.6
20260505175305 35 266 0.0 2.6 0.00 0.04 0.04 74 1009.7
20260505174804 35 253 0.9 4.3 0.00 0.04 0.04 73 1009.6
20260505174304 35 270 0.0 1.7 0.00 0.04 0.04 76 1009.6
20260505173804 35 270 0.0 1.7 0.00 0.04 0.04 76 1009.6
20260505172804 35 283 1.7 5.2 0.00 0.04 0.04 75 1009.6
20260505172305 35 262 1.7 6.1 0.00 0.04 0.04 76 1009.6
20260505171804 35 274 1.7 4.3 0.00 0.04 0.04 76 1009.7
20260505171304 35 254 0.9 2.6 0.00 0.04 0.04 77 1009.7
20260505170804 35 261 0.0 2.6 0.00 0.04 0.04 79 1009.7
20260505170303 34 224 0.9 2.6 0.00 0.04 0.04 79 1009.7
20260505165804 34 247 1.7 2.6 0.00 0.04 0.04 77 1009.7
20260505165306 34 251 1.7 2.6 0.00 0.04 0.04 77 1009.7
20260505164803 34 240 1.7 4.3 0.00 0.04 0.04 77 1009.7
20260505164304 34 235 0.9 6.1 0.00 0.04 0.04 78 1009.7
20260505163803 35 212 2.6 7.8 0.00 0.04 0.04 77 1009.7
20260505163303 35 228 0.9 2.6 0.00 0.04 0.04 77 1009.8
20260505162804 35 264 0.9 2.6 0.00 0.04 0.04 77 1009.6
20260505162306 35 216 0.0 2.6 0.00 0.04 0.04 77 1009.5
20260505161804 35 230 0.9 2.6 0.00 0.04 0.04 77 1009.7
20260505161304 35 233 0.0 0.9 0.00 0.04 0.04 79 1009.6
20260505153304 36 250 4.3 7.8 0.00 0.04 0.04 70 1009.3
20260505152305 37 223 0.9 2.6 0.00 0.04 0.04 70 1009.3
20260505151804 37 254 0.9 2.6 0.00 0.04 0.04 71 1009.2
20260505151303 38 2 0.0 0.9 0.00 0.04 0.04 69 1009.1
20260505150804 38 257 0.0 4.3 0.00 0.04 0.04 74 1009.2
20260505150304 37 255 1.7 5.2 0.00 0.04 0.04 71 1009.1
20260505130304 34 41 0.9 2.6 0.00 0.04 0.04 81 1009.3
20260505124804 34 30 0.9 2.6 0.00 0.04 0.04 81 1009.2
20260505123804 33 273 0.0 2.6 0.00 0.04 0.04 85 1009.2
20260505123303 33 271 0.0 1.7 0.00 0.04 0.04 83 1009.1
20260505122804 33 257 0.0 2.6 0.00 0.04 0.04 82 1009.2
20260505121804 33 257 3.5 7.8 0.00 0.04 0.04 76 1009.1
20260505114803 36 358 0.0 1.7 0.00 0.04 0.04 69 1008.7
20260505113803 35 34 0.9 1.7 0.00 0.04 0.04 71 1008.8
20260505113303 34 23 1.7 2.6 0.00 0.04 0.04 72 1008.8
20260505112305 34 25 4.3 6.1 0.00 0.04 0.04 71 1008.7
20260505111804 34 21 2.6 6.1 0.00 0.04 0.04 70 1008.7
20260505111304 35 28 0.9 4.3 0.00 0.04 0.04 68 1008.8
20260505110303 33 226 0.0 0.9 0.00 0.04 0.04 69 1008.8
20260505101804 35 267 2.6 7.8 0.00 0.04 0.04 64 1008.7
20260505101304 35 247 1.7 4.3 0.00 0.04 0.04 60 1008.6
20260505100804 35 269 2.6 6.1 0.00 0.04 0.04 62 1008.6
20260505100303 35 257 1.7 6.1 0.00 0.04 0.04 65 1008.7
20260505095804 35 241 1.7 7.8 0.00 0.04 0.04 62 1008.7
20260505095305 35 227 0.9 2.6 0.00 0.04 0.04 64 1008.6
20260505094804 36 202 1.7 2.6 0.00 0.04 0.04 62 1008.6
20260505093804 35 245 0.9 2.6 0.01 0.04 0.04 65 1008.6
20260505093304 34 222 2.6 2.6 0.01 0.04 0.04 64 1008.8
20260505092803 34 207 0.9 4.3 0.01 0.04 0.04 67 1008.7
20260505092305 35 255 5.2 13.0 0.01 0.04 0.04 66 1008.6
20260505091804 34 57 0.9 2.6 0.01 0.04 0.04 65 1008.8
20260505091303 35 94 1.7 2.6 0.01 0.04 0.04 64 1008.8
20260505090804 34 260 1.7 4.3 0.02 0.04 0.04 69 1008.7
20260505090303 33 245 2.6 5.2 0.02 0.04 0.04 68 1008.7
20260505085804 33 261 2.6 4.3 0.02 0.04 0.04 67 1008.7
20260505084804 34 247 1.7 5.2 0.02 0.04 0.04 68 1008.7
20260505084304 33 230 1.7 4.3 0.02 0.04 0.04 67 1008.7
20260505083804 33 212 0.9 2.6 0.02 0.03 0.03 73 1008.6
20260505083304 33 141 1.7 2.6 0.02 0.03 0.03 75 1008.6
20260505082803 33 39 0.9 4.3 0.02 0.03 0.03 73 1008.7
20260505081804 33 87 0.9 5.2 0.02 0.03 0.03 74 1008.7
20260505080304 33 262 2.6 6.1 0.01 0.02 0.02 68 1008.7
20260505075804 34 273 1.7 4.3 0.01 0.02 0.02 73 1008.7
20260505075304 33 245 1.7 5.2 0.01 0.02 0.02 73 1008.7
20260505074304 32 221 1.7 2.6 0.02 0.02 0.02 73 1008.7
20260505073804 33 259 0.0 2.6 0.01 0.01 0.01 76 1008.7
20260505073304 32 216 0.9 1.7 0.01 0.01 0.01 75 1008.7
20260505072803 32 269 0.9 2.6 0.01 0.01 0.01 78 1008.6
20260505072305 31 251 1.7 2.6 0.01 0.01 0.01 78 1008.5
20260505071804 31 41 0.0 1.7 0.01 0.01 0.01 79 1008.7
20260505071303 31 272 0.0 1.7 0.01 0.01 0.01 79 1008.7
20260505070803 31 316 0.0 1.7 0.01 0.01 0.01 80 1008.7
20260505070303 31 16 0.0 2.6 0.01 0.01 0.01 79 1008.7
20260505065804 31 268 0.0 0.9 0.01 0.01 0.01 81 1008.7
20260505064803 31 268 0.0 0.9 0.00 0.00 0.00 82 1008.7
20260505064304 30 268 0.0 1.7 0.00 0.00 0.00 83 1008.7
20260505063304 30 268 0.0 2.6 0.00 0.01 0.00 84 1008.7
20260505062804 30 268 0.0 1.7 0.00 0.01 0.00 85 1008.7
20260505062304 30 276 0.0 1.7 0.00 0.01 0.00 85 1008.7
20260505061804 30 275 0.9 1.7 0.00 0.01 0.00 85 1008.6
20260505061303 30 271 0.0 1.7 0.00 0.01 0.00 87 1008.5
20260505060804 30 258 0.9 2.6 0.00 0.01 0.00 89 1008.5
20260505055803 29 264 0.0 1.7 0.00 0.01 0.00 89 1008.5
20260505055304 29 264 0.9 1.7 0.00 0.01 0.00 88 1008.5
20260505054304 29 265 0.0 1.7 0.00 0.02 0.00 88 1008.5
20260505053803 29 264 0.9 1.7 0.00 0.02 0.00 89 1008.4
20260505053304 28 264 0.0 0.9 0.00 0.02 0.00 89 1008.3
20260505052304 28 261 0.0 0.9 0.00 0.02 0.00 89 1008.2
20260505051804 28 261 0.0 1.7 0.00 0.03 0.00 89 1008.2
20260505051304 28 259 0.9 1.7 0.00 0.03 0.00 88 1008.3
20260505050304 28 273 0.0 0.0 0.00 0.04 0.00 88 1008.3